Hourly Weather Gogolevka

Today, 7 May, Friday

Time Temperature Precipitation Wind Pressure Humidity
00:00 +11°C° 0 mm 3 mps 745 mmHg 69%
01:00 +11°C° 0 mm 3 mps 744 mmHg 71%
02:00 +10°C° 0 mm 2 mps 744 mmHg 73%
03:00 +10°C° 0 mm 2 mps 744 mmHg 74%
04:00 +10°C° 0 mm 2 mps 744 mmHg 75%
05:00 +11°C° 0 mm 1 mps 744 mmHg 76%
06:00 +11°C° 0 mm 1 mps 743 mmHg 77%
07:00 +13°C° 0 mm 1 mps 743 mmHg 69%
08:00 +15°C° 0 mm 1 mps 743 mmHg 61%
09:00 +17°C° 0 mm 2 mps 742 mmHg 54%
10:00 +19°C° 0 mm 2 mps 742 mmHg 50%
11:00 +20°C° 0 mm 2 mps 741 mmHg 46%
12:00 +21°C° 0 mm 2 mps 740 mmHg 42%
13:00 +22°C° 0 mm 3 mps 739 mmHg 41%
14:00 +22°C° 0 mm 4 mps 738 mmHg 40%
15:00 +23°C° 0 mm 4 mps 737 mmHg 39%
16:00 +21°C° 0 mm 3 mps 737 mmHg 46%
17:00 +19°C° 0 mm 3 mps 736 mmHg 52%
18:00 +17°C° 0 mm 2 mps 736 mmHg 59%
19:00 +16°C° 0.3 mm 3 mps 736 mmHg 64%
20:00 +13°C° 0.3 mm 3 mps 736 mmHg 70%
21:00 +12°C° 0.3 mm 4 mps 736 mmHg 76%
22:00 +12°C° 0.5 mm 3 mps 735 mmHg 80%
23:00 +12°C° 0.5 mm 2 mps 735 mmHg 83%

Tomorrow, 8 May, Saturday

Time Temperature Precipitation Wind Pressure Humidity
00:00 +12°C° 0.5 mm 1 mps 734 mmHg 87%
01:00 +11°C° 0.7 mm 1 mps 734 mmHg 88%
02:00 +11°C° 0.7 mm 1 mps 734 mmHg 90%
03:00 +11°C° 0.7 mm 1 mps 734 mmHg 92%
04:00 +10°C° 2.6 mm 2 mps 734 mmHg 92%
05:00 +10°C° 2.6 mm 2 mps 735 mmHg 93%
06:00 +9°C° 2.6 mm 3 mps 735 mmHg 94%
07:00 +10°C° 0.2 mm 3 mps 736 mmHg 93%
08:00 +10°C° 0.2 mm 3 mps 737 mmHg 91%
09:00 +10°C° 0.2 mm 4 mps 737 mmHg 90%
10:00 +11°C° 0.1 mm 4 mps 738 mmHg 85%
11:00 +12°C° 0.1 mm 5 mps 738 mmHg 79%
12:00 +13°C° 0.1 mm 6 mps 739 mmHg 74%
13:00 +14°C° 0 mm 5 mps 738 mmHg 67%
14:00 +14°C° 0 mm 4 mps 738 mmHg 61%
15:00 +16°C° 0 mm 3 mps 738 mmHg 54%
16:00 +16°C° 0 mm 3 mps 737 mmHg 58%
17:00 +15°C° 0 mm 4 mps 737 mmHg 62%
18:00 +14°C° 0 mm 4 mps 736 mmHg 66%
19:00 +13°C° 0.1 mm 3 mps 736 mmHg 70%
20:00 +13°C° 0.1 mm 3 mps 736 mmHg 74%
21:00 +13°C° 0.1 mm 2 mps 736 mmHg 78%
22:00 +12°C° 0.3 mm 2 mps 735 mmHg 79%
23:00 +11°C° 0.3 mm 3 mps 735 mmHg 80%

Day after tomorrow, 9 May, Sunday

Time Temperature Precipitation Wind Pressure Humidity
00:00 +11°C° 0.3 mm 3 mps 735 mmHg 81%
01:00 +10°C° 0.1 mm 4 mps 734 mmHg 82%
02:00 +10°C° 0.1 mm 4 mps 734 mmHg 82%
03:00 +8°C° 0.1 mm 5 mps 734 mmHg 83%
04:00 +8°C° 0.3 mm 5 mps 734 mmHg 84%
05:00 +7°C° 0.3 mm 5 mps 735 mmHg 86%
06:00 +7°C° 0.3 mm 4 mps 735 mmHg 87%
07:00 +7°C° 0.8 mm 4 mps 735 mmHg 88%
08:00 +7°C° 0.8 mm 4 mps 736 mmHg 89%
09:00 +7°C° 0.8 mm 3 mps 736 mmHg 90%
10:00 +6°C° 1.1 mm 4 mps 737 mmHg 91%
11:00 +5°C° 1.1 mm 4 mps 737 mmHg 92%
12:00 +5°C° 1.1 mm 4 mps 738 mmHg 93%
13:00 +5°C° 0.5 mm 4 mps 738 mmHg 92%
14:00 +5°C° 0.5 mm 4 mps 739 mmHg 90%
15:00 +5°C° 0.5 mm 4 mps 739 mmHg 88%
16:00 +5°C° 0.1 mm 3 mps 740 mmHg 88%
17:00 +6°C° 0.1 mm 2 mps 740 mmHg 88%
18:00 +6°C° 0.1 mm 2 mps 741 mmHg 88%
19:00 +7°C° 0.1 mm 1 mps 741 mmHg 89%
20:00 +6°C° 0.1 mm 1 mps 742 mmHg 90%
21:00 +5°C° 0.1 mm 0 mps 742 mmHg 92%
22:00 +5°C° 0.1 mm 0 mps 743 mmHg 92%
23:00 +5°C° 0.1 mm 0 mps 743 mmHg 93%

10 May, Monday

Time Temperature Precipitation Wind Pressure Humidity
00:00 +5°C° 0.1 mm 0 mps 743 mmHg 93%
01:00 +6°C° 0 mm 1 mps 744 mmHg 94%
02:00 +6°C° 0 mm 1 mps 744 mmHg 94%
03:00 +6°C° 0 mm 1 mps 745 mmHg 95%
04:00 +6°C° 0.1 mm 1 mps 745 mmHg 95%
05:00 +6°C° 0.1 mm 1 mps 746 mmHg 95%
06:00 +6°C° 0.1 mm 1 mps 746 mmHg 94%
07:00 +6°C° 0.1 mm 1 mps 747 mmHg 94%
08:00 +5°C° 0.1 mm 2 mps 747 mmHg 94%
09:00 +6°C° 0.1 mm 2 mps 747 mmHg 94%
10:00 +6°C° 0 mm 2 mps 748 mmHg 92%
11:00 +7°C° 0 mm 2 mps 748 mmHg 90%
12:00 +8°C° 0 mm 2 mps 749 mmHg 88%
13:00 +7°C° 0.1 mm 2 mps 749 mmHg 88%
14:00 +7°C° 0.1 mm 3 mps 749 mmHg 88%
15:00 +7°C° 0.1 mm 3 mps 749 mmHg 88%
16:00 +7°C° 0 mm 2 mps 750 mmHg 87%
17:00 +7°C° 0 mm 2 mps 750 mmHg 87%
18:00 +8°C° 0 mm 1 mps 751 mmHg 87%
19:00 +8°C° 0 mm 1 mps 751 mmHg 88%
20:00 +7°C° 0 mm 1 mps 751 mmHg 89%
21:00 +6°C° 0 mm 0 mps 752 mmHg 91%
22:00 +7°C° 0 mm 1 mps 752 mmHg 91%
23:00 +7°C° 0 mm 1 mps 752 mmHg 92%

11 May, Tuesday

Time Temperature Precipitation Wind Pressure Humidity
00:00 +7°C° 0 mm 1 mps 752 mmHg 92%
01:00 +6°C° 0 mm 1 mps 752 mmHg 92%
02:00 +5°C° 0 mm 0 mps 753 mmHg 93%
03:00 +5°C° 0 mm 0 mps 753 mmHg 93%
04:00 +5°C° 0 mm 0 mps 753 mmHg 92%
05:00 +6°C° 0 mm 0 mps 753 mmHg 91%
06:00 +6°C° 0 mm 0 mps 754 mmHg 90%
07:00 +8°C° 0 mm 1 mps 754 mmHg 84%
08:00 +10°C° 0 mm 1 mps 754 mmHg 78%
09:00 +11°C° 0 mm 1 mps 754 mmHg 72%
10:00 +11°C° 0.1 mm 1 mps 754 mmHg 71%
11:00 +10°C° 0.1 mm 2 mps 754 mmHg 71%
12:00 +12°C° 0.1 mm 2 mps 754 mmHg 70%
13:00 +12°C° 0.1 mm 1 mps 754 mmHg 69%
14:00 +12°C° 0.1 mm 1 mps 754 mmHg 69%
15:00 +12°C° 0.1 mm 0 mps 754 mmHg 68%
16:00 +13°C° 0.1 mm 1 mps 754 mmHg 71%
17:00 +12°C° 0.1 mm 1 mps 754 mmHg 74%
18:00 +12°C° 0.1 mm 1 mps 754 mmHg 76%
19:00 +11°C° 0 mm 1 mps 754 mmHg 81%
20:00 +9°C° 0 mm 1 mps 754 mmHg 85%
21:00 +8°C° 0 mm 1 mps 755 mmHg 89%
22:00 +7°C° 0 mm 2 mps 754 mmHg 90%
23:00 +6°C° 0 mm 2 mps 754 mmHg 90%

12 May, Wednesday

Time Temperature Precipitation Wind Pressure Humidity
00:00 +6°C° 0 mm 2 mps 754 mmHg 91%
01:00 +5°C° 0 mm 2 mps 754 mmHg 91%
02:00 +5°C° 0 mm 2 mps 754 mmHg 91%
03:00 +5°C° 0 mm 2 mps 753 mmHg 92%
04:00 +5°C° 0.2 mm 2 mps 754 mmHg 91%
05:00 +6°C° 0.2 mm 2 mps 754 mmHg 89%
06:00 +6°C° 0.2 mm 2 mps 754 mmHg 88%
07:00 +6°C° 0.3 mm 2 mps 753 mmHg 88%
08:00 +7°C° 0.3 mm 3 mps 753 mmHg 87%
09:00 +6°C° 0.3 mm 4 mps 752 mmHg 87%
10:00 +7°C° 0.2 mm 4 mps 752 mmHg 84%
11:00 +9°C° 0.2 mm 3 mps 752 mmHg 82%
12:00 +10°C° 0.2 mm 3 mps 752 mmHg 80%
13:00 +11°C° 0 mm 4 mps 751 mmHg 76%
14:00 +12°C° 0 mm 4 mps 751 mmHg 71%
15:00 +14°C° 0 mm 5 mps 750 mmHg 67%
16:00 +13°C° 0.8 mm 4 mps 750 mmHg 74%
17:00 +11°C° 0.8 mm 4 mps 750 mmHg 81%
18:00 +10°C° 0.8 mm 3 mps 749 mmHg 87%
19:00 +10°C° 0.9 mm 3 mps 750 mmHg 88%
20:00 +10°C° 0.9 mm 3 mps 750 mmHg 89%
21:00 +10°C° 0.9 mm 4 mps 750 mmHg 89%
22:00 +8°C° 0.3 mm 4 mps 750 mmHg 90%
23:00 +8°C° 0.3 mm 5 mps 750 mmHg 91%
Show more